User: anonymous   Login
Location: Whitehorse
(60.7170°N, 135.0500°W)
Time: 12:13:42
(UTC-08:00)
Language:

Cosmos 2219 Rocket - Orbit

View from above orbital plane
View from above orbital plane
View from above satellite
View from above satellite

Ground track
Ground track

The orbit data is extracted from the following two-line orbital elements,

1 22220U 92076B   15063.84873713  .00000193  00000-0  12102-3 0  9990
2 22220 071.0017 017.5043 0010744 109.5747 279.0808 14.16352992152492
Epoch (UTC): 04 March 2015 20:22:10
Eccentricity: 0.0010744
inclination: 71.0017°
perigee height: 830 km
apogee height: 845 km
right ascension of ascending node: 17.5043°
argument of perigee: 109.5747°
revolutions per day: 14.16352992
mean anomaly at epoch: 279.0808°
orbit number at epoch: 15249

The dashed part of the orbit path shows where the satellite is in the earth's shadow,  

DLR